Tracking 17856 objects as of 28-September-2016
HD Live streaming from Space Station
objects crossing your sky now

NAVSTAR 36 (USA 100)

Track NAVSTAR 36 (USA 100) now!
NAVSTAR 36 (USA 100) is classified as:


NORAD ID: 23027
Int'l Code: 1994-016A
Perigee: 19,942.2 km
Apogee: 20,536.2 km
Inclination: 54.7 °
Period: 720.0 minutes
Semi major axis: 26610 km
RCS: 2.0263 m2 (large)
Launch date: March 10, 1994
Source: United States (US)
Launch site: AIR FORCE EASTERN TEST RANGE (AFETR)
PRN:
Your satellite tracking list
Your tracking list is empty





NASA's NSSDC Master Catalog

Two Line Element Set (TLE):
1 23027U 94016A   16272.34968615 -.00000071  00000-0  00000+0 0  9992
2 23027  54.6704  45.8606 0111618  16.3195  37.9401  2.00565324165265
Source of the keplerian elements: AFSPC

N2YO: 496